ANA733 RJOO-RJSS

Flight info

Callsign ANA733
Flight time N/A
Altitude 35000
Route MINAC4 MINAC DCT YOKKA DCT KCC Y88 TENRU Y15 OWLET OWLEEA
Aircraft A321/M-SDE3FGHIRWY/LB1

Departure

Time 2026-05-05 18:07
Airport Osaka Itami International Airport (RJOO)

Arrival

Time N/A
Airport Sendai Airport (RJSS)
Time Latitude Longitude Altitude Speed Heading
2026-05-05 17:38 34.78816 135.44284 50 ft 0 kts 67°
2026-05-05 17:58 34.78812 135.44273 47 ft 4 kts 67°
2026-05-05 17:58 34.78802 135.44242 49 ft 4 kts 69°
2026-05-05 17:59 34.78792 135.44212 50 ft 4 kts 69°
2026-05-05 17:59 34.78782 135.44181 48 ft 4 kts 64°
2026-05-05 17:59 34.78769 135.44153 47 ft 4 kts 55°
2026-05-05 17:59 34.78754 135.44129 49 ft 2 kts 49°
2026-05-05 18:00 34.78753 135.44128 49 ft 0 kts 49°
2026-05-05 18:02 34.78757 135.44131 49 ft 2 kts 36°
2026-05-05 18:02 34.78781 135.44114 49 ft 6 kts 293°
2026-05-05 18:02 34.78813 135.44043 50 ft 13 kts 313°
2026-05-05 18:02 34.78892 135.43945 50 ft 19 kts 315°
2026-05-05 18:03 34.78982 135.43838 50 ft 18 kts 315°
2026-05-05 18:03 34.79060 135.43744 50 ft 16 kts 315°
2026-05-05 18:03 34.79135 135.43652 48 ft 15 kts 315°
2026-05-05 18:03 34.79207 135.43563 48 ft 14 kts 309°
2026-05-05 18:04 34.79225 135.43458 50 ft 13 kts 267°
2026-05-05 18:04 34.79243 135.43394 50 ft 12 kts 308°
2026-05-05 18:04 34.79300 135.43322 50 ft 12 kts 315°
2026-05-05 18:04 34.79357 135.43255 50 ft 11 kts 315°
2026-05-05 18:05 34.79387 135.43175 50 ft 10 kts 275°
2026-05-05 18:05 34.79337 135.43101 50 ft 8 kts 225°
2026-05-05 18:05 34.79312 135.43069 50 ft 7 kts 226°
2026-05-05 18:05 34.79276 135.43024 49 ft 8 kts 225°
2026-05-05 18:06 34.79228 135.42964 50 ft 12 kts 225°
2026-05-05 18:06 34.79182 135.42919 50 ft 13 kts 205°
2026-05-05 18:06 34.79023 135.43002 49 ft 35 kts 134°
2026-05-05 18:06 34.78669 135.43428 51 ft 105 kts 135°
2026-05-05 18:07 34.78019 135.44213 48 ft 156 kts 135°
2026-05-05 18:07 34.77159 135.45225 303 ft 175 kts 137°
2026-05-05 18:07 34.76322 135.46179 1141 ft 161 kts 132°
2026-05-05 18:07 34.75850 135.47343 1685 ft 162 kts 90°
2026-05-05 18:08 34.76190 135.48617 1969 ft 173 kts 46°
2026-05-05 18:08 34.77119 135.49682 2124 ft 196 kts 48°
2026-05-05 18:08 34.77762 135.51219 2333 ft 220 kts 76°
2026-05-05 18:08 34.78008 135.53154 2619 ft 245 kts 82°
2026-05-05 18:09 34.78111 135.55246 3136 ft 261 kts 85°
2026-05-05 18:09 34.78157 135.57415 3908 ft 265 kts 86°
2026-05-05 18:09 34.78188 135.59614 4693 ft 270 kts 86°
2026-05-05 18:09 34.78218 135.61897 5473 ft 274 kts 85°
2026-05-05 18:10 34.78252 135.64232 6268 ft 277 kts 85°
2026-05-05 18:10 34.78289 135.66593 7022 ft 281 kts 85°
2026-05-05 18:10 34.78333 135.68998 7608 ft 290 kts 84°
2026-05-05 18:10 34.78419 135.71447 8350 ft 292 kts 81°
2026-05-05 18:11 34.78807 135.73812 9043 ft 289 kts 63°
2026-05-05 18:11 34.79632 135.76042 9735 ft 291 kts 60°
2026-05-05 18:11 34.80406 135.78294 10253 ft 303 kts 62°
2026-05-05 18:11 34.81219 135.80780 10391 ft 327 kts 63°
2026-05-05 18:12 34.82058 135.83447 10660 ft 344 kts 64°
2026-05-05 18:12 34.82903 135.86217 11211 ft 351 kts 64°
2026-05-05 18:12 34.83739 135.88989 11802 ft 356 kts 64°
2026-05-05 18:12 34.84591 135.91811 12418 ft 362 kts 64°
2026-05-05 18:13 34.85470 135.94705 13034 ft 367 kts 64°
2026-05-05 18:13 34.86367 135.97647 13647 ft 372 kts 64°
2026-05-05 18:13 34.87276 136.00613 14201 ft 377 kts 64°
2026-05-05 18:13 34.88197 136.03616 14719 ft 382 kts 64°
2026-05-05 18:14 34.89134 136.06670 15241 ft 387 kts 64°
2026-05-05 18:14 34.90070 136.09731 15770 ft 392 kts 65°
2026-05-05 18:14 34.91026 136.12864 16261 ft 397 kts 65°
2026-05-05 18:14 34.91996 136.16050 16778 ft 403 kts 65°
2026-05-05 18:15 34.92965 136.19236 17283 ft 408 kts 65°
2026-05-05 18:15 34.93964 136.22513 17749 ft 414 kts 65°
2026-05-05 18:15 34.94974 136.25828 18240 ft 419 kts 66°
2026-05-05 18:15 34.95979 136.29139 18680 ft 424 kts 66°
2026-05-05 18:16 34.97008 136.32538 19109 ft 429 kts 66°
2026-05-05 18:16 34.98048 136.35976 19505 ft 433 kts 66°
2026-05-05 18:16 34.99101 136.39452 19909 ft 439 kts 66°
2026-05-05 18:16 35.00166 136.42965 20320 ft 443 kts 66°
2026-05-05 18:17 35.01398 136.46414 20712 ft 444 kts 57°
2026-05-05 18:17 35.03055 136.49590 21075 ft 445 kts 51°
2026-05-05 18:17 35.04804 136.52679 21459 ft 449 kts 51°
2026-05-05 18:17 35.06591 136.55831 21852 ft 454 kts 51°
2026-05-05 18:18 35.08389 136.59015 22203 ft 460 kts 51°
2026-05-05 18:18 35.10217 136.62261 22560 ft 465 kts 51°
2026-05-05 18:18 35.12056 136.65540 22938 ft 470 kts 51°
2026-05-05 18:18 35.13909 136.68854 23313 ft 474 kts 51°
2026-05-05 18:19 35.15776 136.72199 23679 ft 478 kts 51°
2026-05-05 18:19 35.17637 136.75531 23970 ft 482 kts 52°
2026-05-05 18:19 35.19537 136.78932 24266 ft 486 kts 51°
2026-05-05 18:19 35.21455 136.82370 24531 ft 491 kts 52°
2026-05-05 18:20 35.23391 136.85843 24806 ft 495 kts 52°
2026-05-05 18:20 35.25341 136.89346 25089 ft 499 kts 52°
2026-05-05 18:20 35.27102 136.93052 25376 ft 507 kts 63°
2026-05-05 18:20 35.28549 136.97018 25652 ft 512 kts 64°
2026-05-05 18:21 35.30001 137.01032 25909 ft 517 kts 65°
2026-05-05 18:21 35.31412 137.04936 26139 ft 522 kts 65°
2026-05-05 18:21 35.32881 137.08997 26418 ft 526 kts 65°
2026-05-05 18:21 35.34361 137.13086 26679 ft 529 kts 65°
2026-05-05 18:22 35.35861 137.17228 26960 ft 533 kts 65°
2026-05-05 18:22 35.37346 137.21340 27222 ft 537 kts 65°
2026-05-05 18:22 35.38826 137.25448 27489 ft 540 kts 65°
2026-05-05 18:22 35.40361 137.29667 27757 ft 544 kts 65°
2026-05-05 18:23 35.41924 137.33848 28022 ft 547 kts 64°
2026-05-05 18:23 35.43546 137.38096 28273 ft 551 kts 64°
2026-05-05 18:23 35.45191 137.42365 28523 ft 554 kts 64°
2026-05-05 18:23 35.46845 137.46661 28779 ft 558 kts 64°
2026-05-05 18:24 35.48502 137.50982 29017 ft 561 kts 64°
2026-05-05 18:24 35.50167 137.55336 29258 ft 565 kts 64°
2026-05-05 18:24 35.51838 137.59726 29455 ft 567 kts 65°
2026-05-05 18:24 35.53484 137.64069 29738 ft 569 kts 65°
2026-05-05 18:25 35.55154 137.68482 29966 ft 572 kts 65°
2026-05-05 18:25 35.56293 137.71491 30130 ft 574 kts 65°
2026-05-05 18:25 35.58533 137.77414 30391 ft 578 kts 65°
2026-05-05 18:25 35.60226 137.81910 30633 ft 580 kts 65°
2026-05-05 18:26 35.61872 137.86375 30937 ft 580 kts 66°
2026-05-05 18:26 35.63507 137.90907 31259 ft 579 kts 66°
2026-05-05 18:26 35.65264 137.95367 31553 ft 578 kts 59°
2026-05-05 18:26 35.67433 137.99518 31888 ft 576 kts 50°
2026-05-05 18:27 35.69937 138.03181 32174 ft 571 kts 40°
2026-05-05 18:27 35.72855 138.06478 32436 ft 565 kts 31°
2026-05-05 18:27 35.75951 138.09463 32676 ft 566 kts 31°
2026-05-05 18:27 35.78935 138.12350 33024 ft 565 kts 31°